TimeCDT,TemperatureF,Dew PointF,Humidity,Sea Level PressureIn,VisibilityMPH,Wind Direction,Wind SpeedMPH,Gust SpeedMPH,PrecipitationIn,Events,Conditions,WindDirDegrees,DateUTC
12:05 AM,57.2,55.4,94,29.36,6.0,South,12.7,-,0.01,Rain,Light Rain,180,2012-10-18 05:05:00
12:53 AM,55.0,54.0,96,29.37,2.5,West,17.3,23.0,0.06,Rain,Rain,260,2012-10-18 05:53:00
12:58 AM,55.4,53.6,94,29.37,3.0,West,15.0,23.0,0.01,Rain,Light Rain,260,2012-10-18 05:58:00
1:53 AM,53.1,52.0,96,29.36,9.0,West,11.5,-,0.04,,Overcast,260,2012-10-18 06:53:00
2:02 AM,53.6,51.8,94,29.36,10.0,WSW,10.4,-,N/A,,Overcast,250,2012-10-18 07:02:00
2:53 AM,52.0,50.0,93,29.36,8.0,WSW,11.5,-,0.01,Rain,Light Rain,240,2012-10-18 07:53:00
3:16 AM,51.8,50.0,94,29.37,10.0,WSW,11.5,-,0.00,,Overcast,240,2012-10-18 08:16:00
3:24 AM,51.8,50.0,94,29.37,9.0,WSW,16.1,20.7,0.01,Rain,Light Rain,250,2012-10-18 08:24:00
3:44 AM,51.8,48.2,88,29.36,7.0,West,13.8,-,0.05,Rain,Light Rain,260,2012-10-18 08:44:00
3:53 AM,51.1,48.9,92,29.36,8.0,West,10.4,-,0.06,Rain,Light Rain,260,2012-10-18 08:53:00
4:32 AM,51.8,48.2,88,29.38,10.0,SW,12.7,19.6,0.00,,Overcast,220,2012-10-18 09:32:00
4:48 AM,50.0,44.6,82,29.38,10.0,WSW,12.7,21.9,0.00,,Mostly Cloudy,250,2012-10-18 09:48:00
4:53 AM,50.0,45.0,83,29.38,10.0,West,15.0,-,0.00,,Mostly Cloudy,260,2012-10-18 09:53:00
5:53 AM,46.9,43.0,86,29.41,10.0,SW,12.7,-,N/A,,Clear,230,2012-10-18 10:53:00
6:53 AM,46.9,42.1,83,29.43,10.0,SW,15.0,-,N/A,,Mostly Cloudy,230,2012-10-18 11:53:00
7:53 AM,45.0,41.0,86,29.46,10.0,SW,10.4,-,N/A,,Clear,220,2012-10-18 12:53:00
8:53 AM,46.9,41.0,80,29.46,10.0,SSW,13.8,-,N/A,,Clear,210,2012-10-18 13:53:00
9:53 AM,50.0,41.0,71,29.47,10.0,South,13.8,-,N/A,,Clear,190,2012-10-18 14:53:00
10:53 AM,52.0,39.9,63,29.47,10.0,SSW,16.1,-,N/A,,Clear,210,2012-10-18 15:53:00
11:53 AM,55.9,39.0,53,29.48,10.0,SW,17.3,26.5,N/A,,Partly Cloudy,220,2012-10-18 16:53:00
12:53 PM,57.0,39.0,51,29.48,10.0,SW,13.8,24.2,N/A,,Overcast,220,2012-10-18 17:53:00
1:53 PM,55.9,36.0,47,29.47,10.0,SSW,18.4,26.5,N/A,,Mostly Cloudy,200,2012-10-18 18:53:00
2:53 PM,55.0,34.0,45,29.49,10.0,SSW,23.0,31.1,N/A,,Overcast,210,2012-10-18 19:53:00
3:53 PM,50.0,37.9,63,29.52,10.0,SSW,21.9,28.8,0.00,Rain,Light Rain,200,2012-10-18 20:53:00
4:53 PM,46.9,41.0,80,29.57,10.0,SW,13.8,-,0.01,Rain,Light Rain,220,2012-10-18 21:53:00
5:53 PM,46.0,41.0,83,29.59,10.0,SSW,13.8,-,0.01,Rain,Light Rain,210,2012-10-18 22:53:00
6:53 PM,45.0,41.0,86,29.60,10.0,South,9.2,-,0.00,,Overcast,190,2012-10-18 23:53:00
7:53 PM,45.0,42.1,90,29.60,10.0,South,9.2,-,0.00,,Overcast,180,2012-10-19 00:53:00
8:53 PM,45.0,42.1,90,29.59,10.0,South,12.7,-,0.01,Rain,Light Rain,190,2012-10-19 01:53:00
9:53 PM,45.0,42.1,90,29.58,10.0,South,9.2,20.7,0.01,,Overcast,180,2012-10-19 02:53:00
10:53 PM,45.0,42.1,90,29.57,10.0,South,8.1,-,0.01,,Overcast,180,2012-10-19 03:53:00
11:53 PM,45.0,42.1,90,29.54,10.0,SSE,6.9,-,0.00,,Overcast,150,2012-10-19 04:53:00